This demonstration page uses our WeatherBlox Daily Observations layout. Learn more.

Left ArrowRight Arrow

Hourly Observations for August 12, 2022

Temp ( °F °C ) Dew Point ( °F °C ) Humidity (%) Winds ( mph kmh ) Pressure ( in mb ) Visibility ( mi km ) Precip ( " mm )
12:56 am 00:56 Clear 74 23.2 64 17.8 72 72 S 3 6 30.11 1020 10 16 0.00 0.00
1:56 am 01:56 Clear 71 21.9 65 18.1 79 79 Calm 30.12 1020 10 16 0.00 0.00
2:56 am 02:56 Clear 71 21.6 64 18 80 80 Calm 30.12 1020 10 16 0.00 0.00
3:56 am 03:56 Clear 72 22.2 64 17.5 75 75 Calm 30.12 1020 10 16 0.00 0.00
4:56 am 04:56 Clear 71 21.9 62 16.8 73 73 SW 3 6 30.11 1020 10 16 0.00 0.00
5:56 am 05:56 Clear 68 20.2 63 17.4 84 84 Calm 30.11 1020 10 16 0.00 0.00
6:56 am 06:56 Sunny 68 19.9 61 16.3 80 80 ESE 3 6 30.13 1020 10 16 0.00 0.00
7:56 am 07:56 Sunny 72 22.1 61 16.1 69 69 SE 5 7 30.13 1020 10 16 0.00 0.00
8:56 am 08:56 Sunny 76 24.3 60 15.5 58 58 SSW 5 7 30.14 1021 10 16 0.00 0.00
9:56 am 09:56 Sunny 81 27.1 60 15.4 49 49 S 10 17 30.14 1021 10 16 0.00 0.00
10:56 am 10:56 Sunny 85 29.4 58 14.4 40 40 SSW 8 13 30.13 1020 10 16 0.00 0.00
11:56 am 11:56 Sunny 88 31.2 59 15.2 38 38 S 10 17 30.11 1020 10 16 0.00 0.00
1:56 pm 13:56 Sunny 92 33.4 59 14.9 33 33 SSE 14 22 30.08 1019 10 16 0.00 0.00
2:56 pm 14:56 Sunny 94 34.2 58 14.6 31 31 S 16 26 30.06 1018 10 16 0.00 0.00
3:56 pm 15:56 Mostly Cloudy 92 33.6 62 16.9 37 37 SSE 17 28 30.03 1017 10 16 0.00 0.00
4:56 pm 16:56 Mostly Cloudy 93 33.8 63 17 37 37 SSE 17 28 30.02 1017 10 16 0.00 0.00
5:56 pm 17:56 undefined 92 33.1 62 16.4 37 37 SSE 20 31 30.01 1016 10 16 0.00 0.00
6:56 pm 18:56 Partly Cloudy 90 32.1 61 16 38 38 SSE 17 28 30.00 1016 10 16 0.00 0.00
7:56 pm 19:56 Partly Cloudy 87 30.4 62 16.4 43 43 S 13 20 30.00 1016 10 16 0.00 0.00
8:56 pm 20:56 Partly Cloudy 83 28.2 64 18 54 54 S 12 19 30.01 1016 10 16 0.00 0.00
9:56 pm 21:56 Mostly Clear 80 26.9 65 18.4 60 60 SSE 8 13 30.01 1016 10 16 0.00 0.00
10:56 pm 22:56 Clear 78 25.8 63 17.4 60 60 SSE 10 17 29.98 1015 10 16 0.00 0.00
11:56 pm 23:56 Clear 80 26.4 61 16 53 53 S 10 17 29.99 1016 10 16 0.00 0.00

Powered by AerisWeather